Theta_e
316 317 316 314 312 311 311 310 309 303 302 301 299 298 299 300 300 302 311 310 309 310 312 314 312 312 314 315 314 317 320 321 324 325 323 322 323 324 321 327 331 325 330 323 325 329 332 336 340 336 332 336 335 331
317 318 316 314 312 311 310 310 309 304 302 301 299 298 299 300 300 303 312 311 310 310 308 311 312 311 312 315 315 317 319 321 325 322 323 324 331 328 329 332 325 330 328 329 336 334 330 333 330 333 334 334 335 335
318 317 316 315 313 311 310 310 308 305 302 301 300 299 298 299 300 303 309 309 309 314 314 312 311 312 311 313 315 316 320 320 322 321 321 322 328 325 328 329 327 326 330 329 327 329 329 328 328 329 328 330 334 335
317 318 317 315 313 311 310 310 308 305 302 301 300 299 298 299 300 300 308 311 312 313 314 316 314 314 314 313 315 316 317 317 317 320 321 318 324 326 326 323 325 327 326 328 329 328 327 327 326 327 327 329 336 337
316 317 317 315 313 311 310 309 306 302 301 301 300 299 298 299 299 300 308 312 312 312 313 316 317 316 316 314 314 315 316 317 318 318 319 317 322 321 321 323 326 327 325 324 325 329 327 328 325 325 328 327 332 331
315 316 315 314 311 310 309 308 305 302 301 301 301 299 298 299 300 302 311 310 310 311 311 312 317 316 315 314 314 315 316 317 319 318 316 322 321 321 318 324 327 329 326 326 327 327 325 324 324 326 326 328 326 329
317 315 316 313 311 310 309 307 304 301 301 301 302 300 298 299 300 311 314 314 313 309 308 315 313 315 315 316 315 315 315 316 316 317 318 320 322 321 316 318 329 325 326 326 325 326 325 323 324 326 325 324 327 323
314 315 313 312 310 309 308 305 303 301 301 302 301 299 298 299 300 307 308 310 307 306 315 311 311 316 316 316 315 316 316 316 317 317 316 318 321 320 317 321 325 325 326 325 324 324 325 324 323 324 325 323 323 327
312 311 311 310 309 308 304 303 302 301 301 302 300 298 298 299 309 313 313 306 305 311 315 315 310 316 317 316 316 316 316 314 316 314 313 316 315 317 316 319 319 322 323 321 322 324 325 328 328 329 327 328 330 331
309 310 310 309 308 305 304 303 301 301 302 300 298 300 304 309 314 309 303 304 306 310 313 312 315 311 317 318 319 319 319 317 319 313 316 312 312 317 319 318 318 322 322 319 322 326 327 328 326 325 326 327 325 325
308 309 309 309 306 305 303 301 301 301 301 297 305 310 313 310 309 311 314 312 311 311 312 312 312 309 315 318 318 319 316 315 315 315 317 315 320 322 320 319 322 320 323 325 325 323 321 326 327 326 326 326 326 326
308 307 308 308 304 304 304 301 301 301 298 305 309 309 306 308 313 313 311 312 311 311 313 311 312 311 319 319 318 318 316 316 318 319 317 319 318 320 322 321 321 322 322 322 323 325 325 326 326 324 324 326 327 327
306 306 308 305 305 306 303 301 301 299 303 307 309 310 309 310 310 312 313 312 311 313 315 313 311 317 316 316 320 317 319 317 318 319 320 318 317 317 319 321 322 322 321 321 321 323 324 324 324 325 325 325 325 325
306 307 307 305 307 304 301 301 300 301 306 309 310 306 308 311 310 310 310 310 313 315 313 314 314 313 315 313 313 316 317 319 320 318 320 315 318 320 320 322 322 321 321 320 321 322 322 323 323 323 323 323 324 324
306 308 305 306 306 307 302 301 300 303 308 310 311 308 310 311 311 311 311 311 316 315 315 316 317 315 313 316 317 315 317 319 320 319 316 321 321 317 317 318 322 321 320 319 319 319 320 321 322 322 322 321 323 323
306 305 303 306 305 307 305 300 301 306 309 310 312 311 310 308 310 312 315 316 316 317 317 317 316 315 318 316 319 319 319 320 317 318 319 318 320 319 320 321 321 320 319 318 319 320 320 320 321 321 321 322 321 320
305 305 304 303 303 304 306 302 304 306 309 310 311 311 311 312 316 317 316 317 315 315 315 316 317 319 315 316 318 317 319 317 319 318 320 320 319 320 320 320 319 318 319 319 319 319 320 321 322 322 321 321 320 318
303 303 302 302 303 302 302 303 305 307 308 309 309 311 316 316 316 316 317 317 317 317 318 317 318 317 317 319 318 313 315 315 318 318 315 318 320 321 320 318 318 318 320 319 319 319 321 321 320 320 320 320 318 316
301 301 301 301 301 303 304 304 306 308 308 308 309 311 315 315 315 316 316 317 318 317 318 318 316 316 315 315 316 316 317 317 319 319 318 319 319 320 319 318 316 317 318 318 318 319 319 320 319 318 318 318 317 315
300 300 300 302 303 304 306 307 307 308 311 309 309 314 313 315 316 315 316 317 316 316 317 315 316 317 316 315 316 318 319 320 319 319 319 319 320 320 319 317 315 316 318 319 319 319 318 318 318 317 317 316 316 316
300 300 302 304 306 307 308 306 307 310 312 313 313 314 314 315 316 315 315 316 316 316 317 317 317 316 317 318 319 319 319 319 319 318 318 319 316 318 317 316 316 318 317 318 318 318 318 318 317 316 315 314 314 313
301 302 304 305 307 309 309 310 311 312 314 313 313 315 315 315 314 315 316 317 317 318 317 317 317 316 318 319 318 318 317 317 315 313 313 316 315 316 315 314 317 317 318 318 318 318 317 317 317 316 317 317 317 317
302 304 306 307 308 309 310 312 312 313 313 313 314 314 314 315 316 315 316 317 317 318 318 318 318 319 319 319 317 315 315 316 315 316 317 317 317 316 314 314 316 316 316 316 316 316 315 314 315 315 315 315 316 316
305 305 308 309 309 308 311 312 313 313 314 314 313 315 314 316 316 316 313 316 317 316 316 316 316 317 317 317 317 318 317 316 315 315 315 315 314 315 315 316 316 315 315 315 313 314 315 315 315 314 313 313 314 315
306 306 307 307 310 311 312 312 313 313 313 314 315 313 314 315 313 311 311 316 317 318 317 317 317 317 317 318 318 316 315 315 315 316 315 315 315 315 315 315 315 316 315 313 314 315 315 315 314 313 314 312 313 313
300 307 308 310 311 311 312 312 312 313 314 314 314 315 315 314 314 307 314 317 317 317 316 316 315 314 315 316 316 315 315 315 316 316 315 315 314 315 316 316 315 315 315 315 315 315 314 314 313 313 313 314 313 313
306 310 310 311 312 312 312 312 313 313 314 313 313 313 312 313 314 316 317 317 317 316 315 314 315 315 315 316 315 315 315 315 315 315 314 314 315 316 316 315 315 315 315 314 315 314 313 313 313 313 313 314 313 313
309 310 311 311 311 312 312 311 311 312 313 313 313 313 314 316 315 317 316 315 314 314 315 316 316 316 317 317 315 314 315 315 315 315 315 315 315 315 315 315 315 314 314 314 314 313 313 313 313 313 313 314 313 313
310 310 310 311 311 312 315 314 314 314 314 315 313 313 315 316 316 316 315 315 315 315 315 315 316 315 315 316 315 314 314 314 315 316 316 317 317 316 315 315 315 315 314 312 311 311 311 311 312 314 314 313 312 312
310 310 311 311 312 313 314 315 315 315 314 314 314 314 314 315 315 314 314 313 313 315 315 315 315 315 315 314 314 314 315 316 316 315 315 316 316 316 315 315 315 315 313 312 312 312 313 313 313 311 312 313 314 314
311 310 311 311 312 314 313 312 312 312 313 313 313 312 313 313 313 314 314 316 315 315 315 315 316 315 316 316 316 316 316 315 316 316 316 315 316 316 316 315 315 315 315 315 314 313 313 314 314 314 314 314 314 314
311 311 312 311 313 313 312 312 312 313 313 312 312 312 313 314 316 315 315 315 315 315 315 316 316 315 315 316 316 317 316 316 316 315 314 314 314 314 314 314 314 314 314 314 314 314 314 314 314 314 314 314 314 313
310 310 311 312 313 313 313 313 313 314 314 315 315 315 315 316 315 314 315 316 315 315 315 315 316 317 317 317 317 317 315 315 316 315 314 314 313 312 311 311 313 313 314 314 314 314 313 313 313 312 312 311 310 310
Wind_Speed
18 20 21 21 22 20 23 22 18 14 11 11 9 7 7 5 3 4 7 1 1 4 11 5 6 8 9 7 3 8 4 9 6 5 2 3 1 2 1 1 4 2 1 2 2 3 3 24 8 2 5 10 31 23
17 20 22 21 22 21 22 22 19 15 12 11 9 7 7 6 4 5 11 3 5 7 6 8 5 3 2 2 5 5 2 2 3 3 1 1 3 3 3 1 5 3 3 3 2 1 4 17 16 24 14 19 17 21
19 20 21 23 23 23 23 24 21 15 14 11 9 7 7 6 5 6 5 1 5 4 11 11 13 4 4 4 3 1 3 3 1 2 3 2 0 2 1 1 2 6 5 3 4 5 18 14 22 28 26 32 35 32
22 21 24 25 25 25 24 25 21 17 16 12 9 7 6 6 5 5 6 3 3 1 3 2 4 9 6 8 6 4 2 2 4 4 2 2 1 5 3 2 2 1 4 3 1 5 13 14 25 28 30 29 37 35
21 21 26 26 27 27 27 26 20 17 16 12 9 8 7 6 5 5 8 4 2 2 3 8 6 7 8 8 4 5 3 2 2 1 1 2 2 2 1 3 2 2 3 2 3 2 6 7 20 25 23 27 32 48
16 20 22 27 28 27 28 25 20 16 14 12 10 8 7 6 6 9 4 7 6 4 4 3 4 12 10 8 4 6 5 6 3 3 3 2 2 1 2 1 2 2 4 3 3 4 5 10 10 14 17 20 31 48
16 20 23 27 29 28 30 24 19 17 15 12 10 9 8 7 9 5 3 4 5 5 2 5 6 8 12 8 5 8 10 8 4 3 3 4 2 2 2 1 5 4 3 3 1 7 10 7 6 10 20 22 15 45
13 15 21 28 29 31 29 23 19 17 14 11 9 9 8 7 8 6 1 3 4 5 2 1 5 3 15 12 4 8 6 5 5 5 2 3 3 2 1 4 6 5 3 3 2 3 6 5 3 3 10 19 28 10
8 11 17 26 29 32 28 22 20 17 13 11 9 8 7 7 5 6 3 3 4 3 2 1 2 4 9 10 9 8 7 2 3 5 5 6 1 3 8 11 10 9 4 6 6 12 8 6 6 4 3 6 21 16
9 10 18 23 33 33 28 22 21 17 15 12 11 5 5 8 9 6 4 4 4 4 4 4 4 3 3 3 3 2 4 1 2 2 5 3 4 13 15 16 10 9 1 9 12 5 8 7 2 5 7 6 11 19
7 13 20 29 33 31 24 23 23 19 15 12 6 3 6 10 7 4 4 4 5 3 7 7 8 3 4 3 2 3 1 1 2 4 2 2 4 11 15 7 8 3 8 12 10 9 10 3 4 2 6 8 9 11
18 20 25 36 37 30 23 23 21 20 14 8 5 6 9 5 4 3 3 2 4 5 6 8 8 7 3 2 4 1 2 2 2 5 3 3 3 12 16 16 13 9 8 14 10 5 7 4 6 7 3 7 8 8
26 19 37 38 34 28 26 23 21 19 12 8 4 5 5 4 2 5 5 3 2 3 6 7 3 6 3 3 4 3 2 3 0 3 2 2 2 3 5 11 15 15 15 13 10 12 12 10 12 6 7 8 6 5
27 25 41 43 38 31 28 23 25 19 9 5 5 2 4 4 4 5 4 4 8 3 10 9 4 3 4 3 3 3 2 2 2 1 2 2 3 4 5 3 7 7 9 8 8 5 5 6 4 3 2 3 6 6
26 37 39 31 29 28 29 26 25 16 4 4 4 4 5 9 7 9 16 13 3 13 9 7 4 3 2 3 3 3 3 1 3 1 2 5 8 4 3 4 3 9 7 5 2 3 4 5 4 4 4 5 5 5
23 33 32 29 25 33 31 27 22 7 2 3 4 2 2 3 7 10 8 6 7 9 11 6 3 3 3 3 2 1 1 1 3 2 2 5 7 6 3 3 5 6 5 5 5 7 8 7 5 5 5 4 4 4
35 23 33 27 32 30 28 26 10 3 2 3 3 4 8 4 4 18 11 9 6 6 3 5 3 1 3 3 3 4 1 3 2 2 4 5 5 2 2 4 5 4 4 3 3 3 3 4 4 5 4 2 2 3
36 35 33 28 36 30 35 12 4 3 4 5 4 6 11 10 12 14 17 15 12 7 4 3 2 4 3 2 2 3 5 7 7 8 5 7 4 4 2 5 4 2 3 3 2 0 4 6 5 3 4 5 3 7
37 35 32 34 33 27 7 5 2 2 4 4 5 4 10 14 13 9 12 13 14 10 5 3 5 2 3 8 9 9 5 5 6 7 7 5 3 3 3 2 4 5 5 2 2 1 4 7 8 8 7 6 5 8
33 32 31 32 14 5 5 3 2 3 3 1 2 12 11 11 10 9 6 6 5 5 3 3 4 5 5 8 5 5 1 0 3 8 8 6 5 7 6 5 8 4 1 3 2 3 7 8 8 6 9 6 5 7
40 29 20 12 5 3 4 3 4 3 2 5 7 10 7 9 8 6 4 6 3 2 4 4 4 9 6 6 5 3 1 2 3 5 7 9 5 8 6 9 3 2 2 3 4 5 7 6 9 11 9 9 10 13
24 10 10 10 6 4 1 2 2 2 3 4 7 6 5 3 3 2 3 2 4 4 7 10 9 12 11 8 6 5 6 7 9 10 8 8 9 7 5 6 3 5 5 6 7 6 7 9 12 10 6 5 6 4
3 4 4 3 2 3 2 3 2 3 3 2 3 3 3 2 1 5 3 4 4 12 13 9 7 9 9 7 5 6 4 5 5 5 4 5 7 10 10 7 5 7 6 6 6 7 9 11 8 3 2 4 7 7
8 5 5 5 5 2 3 2 2 3 3 3 2 2 1 2 2 2 1 2 6 9 7 6 4 6 9 9 6 6 8 9 8 7 7 5 4 5 5 7 12 10 8 6 8 13 9 4 1 3 6 6 3 10
3 2 2 3 1 1 1 2 2 2 2 2 3 1 2 2 2 1 1 4 7 10 8 6 3 3 5 8 7 8 8 6 7 7 4 6 4 8 11 11 9 7 5 8 9 4 3 3 2 1 4 3 5 7
2 1 3 1 1 2 3 3 2 2 2 2 2 3 3 2 2 2 1 5 9 6 3 2 2 4 5 7 6 4 2 1 4 6 9 11 11 9 7 4 5 6 8 7 7 8 8 6 2 4 6 2 0 2
4 3 3 1 1 1 2 6 5 2 3 3 3 2 2 2 2 2 8 6 4 1 3 4 4 4 3 5 2 5 8 10 13 13 13 8 2 3 4 5 5 6 4 9 8 9 6 3 2 1 4 1 7 6
3 5 4 11 2 2 3 3 1 3 4 6 2 1 1 2 1 3 4 1 3 6 7 7 7 6 6 5 5 14 10 9 6 5 5 5 4 4 6 5 5 9 7 5 9 8 11 11 8 8 7 5 2 3
4 8 9 4 4 5 8 7 7 6 9 6 3 3 2 3 6 5 4 3 5 8 12 8 9 8 8 13 10 14 9 5 3 6 7 7 8 8 11 9 10 12 10 9 4 8 8 10 10 7 5 8 7 5
4 8 6 8 5 4 6 6 5 5 4 4 2 1 2 3 5 7 11 13 8 6 1 5 8 9 8 9 11 7 5 7 6 6 12 14 11 13 8 12 13 11 6 9 12 13 11 8 7 8 8 8 9 13
2 4 4 5 3 4 5 3 4 5 5 4 4 3 5 6 6 5 3 6 10 13 8 4 5 6 3 4 3 3 4 7 7 9 12 10 6 6 8 8 10 13 17 23 17 15 17 15 12 14 11 11 12 14
2 2 2 2 2 4 3 3 3 3 2 0 0 1 1 1 3 3 15 19 17 11 9 7 6 8 2 3 5 7 11 10 6 6 1 2 2 2 3 4 5 6 6 14 16 12 8 8 11 11 4 2 5 8
1 2 2 1 1 1 4 3 3 5 3 3 2 2 1 1 1 8 11 9 7 7 8 5 1 2 8 13 12 10 9 9 7 9 10 11 11 11 11 9 10 12 14 11 14 12 12 11 13 9 7 9 10 10
Wind_Direction
237 236 221 218 224 224 224 224 229 236 243 256 264 269 267 267 252 205 170 158 330 273 276 329 5 25 17 27 70 332 53 5 20 46 76 283 235 261 253 22 337 125 324 287 73 139 254 347 328 315 242 193 178 189
232 232 218 213 216 219 222 219 222 228 239 246 251 258 257 262 233 184 173 169 226 267 268 283 283 285 264 12 17 20 108 109 27 64 10 323 357 347 14 295 337 50 149 207 167 158 341 33 34 4 357 336 242 223
235 228 221 207 210 215 216 215 218 218 235 240 243 248 245 251 234 192 159 254 244 286 294 262 255 255 161 181 232 92 106 87 172 349 203 234 34 136 11 287 319 359 20 42 43 316 342 15 359 6 358 338 309 295
230 232 218 209 208 207 209 211 215 216 229 236 237 239 235 240 234 201 165 91 74 325 272 292 138 195 243 204 212 196 185 307 315 285 250 216 184 185 216 196 116 285 11 321 341 333 345 336 349 340 339 358 354 301
232 234 222 210 206 205 205 206 206 211 216 226 228 230 228 223 217 200 161 162 122 33 283 293 257 223 244 215 210 189 247 303 9 294 182 249 258 109 320 93 11 13 201 103 249 184 253 299 325 332 308 340 351 341
230 233 225 215 204 200 201 200 201 210 216 221 221 222 222 210 189 157 171 205 209 234 294 326 274 207 211 204 232 222 242 299 266 306 268 240 2 148 86 152 226 221 252 256 57 237 275 308 332 7 351 340 336 329
230 226 228 204 197 198 196 193 196 206 211 212 215 214 213 201 190 186 143 147 194 211 240 311 294 204 204 213 244 230 238 248 261 265 242 172 175 39 84 187 189 192 32 77 42 232 276 306 69 75 69 66 60 344
228 219 216 199 192 195 189 187 196 201 202 201 205 205 205 196 192 205 180 165 171 181 213 225 274 166 204 210 223 228 233 237 230 223 230 123 108 61 299 171 164 185 245 259 157 325 26 11 279 59 57 67 64 335
193 184 198 199 193 185 172 184 193 191 190 192 187 185 183 177 160 158 138 169 181 189 224 270 199 233 189 219 231 248 225 151 261 184 223 137 174 207 223 203 180 199 218 321 343 293 288 295 301 303 78 99 113 150
194 202 206 198 185 170 173 189 182 182 182 174 166 170 164 159 137 151 153 182 183 204 226 239 271 275 262 165 37 66 43 78 8 278 311 144 227 269 253 244 194 187 284 334 359 359 244 249 288 101 140 149 126 116
192 219 200 189 174 168 181 186 177 171 170 165 171 145 151 152 163 181 187 181 190 229 212 227 222 233 348 111 144 36 153 0 59 283 84 360 20 352 35 113 137 72 83 80 80 62 65 204 188 237 98 98 90 88
198 193 206 176 166 170 183 179 171 167 163 156 149 132 147 181 188 185 200 240 174 217 203 179 198 209 140 104 91 43 90 42 262 312 57 52 283 19 58 56 69 99 80 88 73 88 89 121 140 85 53 31 69 72
203 197 192 180 164 176 181 175 169 166 158 149 157 166 184 181 125 189 184 234 226 224 180 154 147 142 125 105 82 82 73 248 270 47 123 204 247 63 109 72 65 91 117 100 82 79 110 90 59 54 60 61 62 59
193 189 175 170 177 171 171 169 170 170 166 171 180 177 177 207 214 203 189 196 223 193 147 109 98 107 117 69 136 99 227 115 76 24 243 265 197 163 187 66 84 118 95 113 97 84 105 57 72 50 337 317 294 333
163 186 169 182 178 178 167 171 175 176 172 210 214 198 212 233 249 249 246 268 216 185 148 117 81 110 43 93 42 68 8 308 59 225 229 127 175 176 113 139 81 92 77 61 350 314 329 321 350 319 314 286 305 338
161 162 168 170 165 178 173 172 178 179 233 242 240 279 279 181 289 285 199 138 91 120 110 105 88 62 38 112 129 170 35 119 248 197 192 200 184 185 171 116 26 21 4 353 314 273 270 279 294 280 290 297 324 341
159 149 171 167 168 164 172 174 170 242 254 253 270 276 266 242 63 58 114 113 145 105 99 84 62 84 140 78 54 3 242 193 270 171 170 193 148 122 78 358 1 32 28 39 42 37 164 199 194 210 215 161 140 64
138 149 160 161 158 147 156 173 206 249 241 256 285 330 84 87 78 77 70 70 93 80 80 140 104 59 64 118 238 227 247 247 234 223 213 184 154 142 290 333 329 334 313 314 347 80 153 170 163 159 145 148 114 48
142 145 152 156 154 136 134 179 208 265 248 282 293 323 105 89 87 82 86 78 78 100 102 73 66 104 192 217 231 228 233 205 242 238 221 221 234 251 282 343 336 310 296 259 267 285 157 152 136 125 140 142 92 83
134 138 144 130 119 122 146 168 218 276 280 314 338 134 116 95 81 103 74 61 117 112 83 77 173 188 223 204 164 153 102 212 225 229 228 227 225 232 240 293 328 310 261 263 195 144 156 144 155 159 154 149 152 134
129 135 135 124 95 80 88 157 217 241 6 34 89 96 96 97 77 58 48 55 87 99 80 131 155 150 145 163 175 158 155 280 107 130 156 175 187 209 250 302 262 235 247 238 207 181 183 173 142 136 132 137 104 132
115 83 59 57 54 54 58 52 338 22 67 61 71 73 92 96 116 110 87 55 63 93 142 161 163 173 184 183 182 222 260 281 279 268 251 237 209 213 289 295 272 195 206 210 207 210 176 165 166 166 176 211 211 219
110 46 72 71 134 124 88 71 46 50 80 59 76 59 30 53 116 129 65 50 112 146 145 154 155 176 190 197 231 274 289 310 305 266 247 226 243 272 273 230 224 192 197 145 156 163 157 141 142 152 218 244 247 261
54 31 31 25 42 20 95 85 80 71 62 54 64 65 15 31 123 56 113 135 136 145 131 126 148 180 189 190 236 253 288 283 266 259 252 252 249 264 221 193 164 145 135 137 142 136 146 151 319 13 21 22 194 216
343 13 45 358 345 334 105 72 73 82 103 142 94 330 257 161 89 56 158 114 152 156 141 145 153 117 179 213 253 301 305 305 228 227 223 180 181 142 147 162 158 146 152 148 150 176 257 293 18 350 344 343 120 177
56 162 150 291 187 134 150 124 136 115 131 176 138 168 167 187 104 229 96 115 112 126 161 214 259 274 249 253 287 302 316 186 183 180 173 158 154 142 150 170 178 165 196 209 212 241 252 223 142 341 317 311 3 12
33 355 319 345 26 121 19 72 125 146 208 162 174 168 148 180 135 102 116 126 136 251 307 314 285 287 235 228 250 169 137 127 128 140 153 161 233 273 294 293 245 206 210 218 205 207 203 226 306 346 214 209 299 282
4 352 349 333 6 188 181 194 208 51 35 10 332 139 135 64 140 138 160 188 316 319 303 284 267 251 226 210 211 177 160 172 185 199 230 239 208 243 251 242 236 226 220 219 218 225 223 231 248 280 267 294 131 207
345 341 341 354 345 38 39 33 36 43 12 24 42 29 60 99 143 175 226 263 283 300 311 287 264 270 236 211 198 183 193 206 252 291 289 292 310 261 240 243 234 225 251 258 238 246 261 254 245 255 271 273 277 296
32 8 11 14 29 48 42 50 53 52 27 29 346 285 170 162 220 263 274 287 275 294 249 116 105 86 88 120 162 195 231 267 255 265 291 305 297 291 294 238 226 238 246 260 255 256 268 268 268 258 272 275 270 282
23 24 37 31 61 55 22 11 350 329 297 286 298 298 279 293 303 313 220 157 151 132 150 109 31 315 250 187 197 229 242 210 302 262 282 291 247 306 288 257 266 266 259 240 262 266 258 271 283 281 305 271 266 261
63 61 57 13 25 331 313 291 316 42 20 185 289 280 287 326 355 51 157 150 169 189 175 188 180 166 195 283 286 281 253 266 282 280 343 137 217 208 253 283 242 207 191 203 222 227 251 267 266 234 255 224 229 252
151 160 165 201 240 25 108 97 356 344 360 41 62 60 316 291 141 180 189 196 207 225 224 216 185 339 318 307 297 281 255 254 277 293 290 285 289 295 282 267 257 253 258 276 267 246 261 253 217 236 255 263 269 267